Weather in Yevseykino

Russia / Mari El Republic     56°16′50″N   46°56′21″E
temp.,
°C
wind,
m/s
gust,
m/s
humid.,
%
clouds,
%
prec.,
mm/h
press.,
hPa
HPBL,
m
25 february, thu
thu2500:00−22ssw239599 0.0 103540
03:00−23s239399 0.0 103380
06:00−20s4992100 0.0 1028277
09:00−18sse51096100 0.4 1025346
12:00−15sse51194100 1.3 1021577
15:00−14sse51093100 2.5 1018704
18:00−13sse3895100 0.9 1016524
21:00−14se379598 1.3 1015302
26 february, fri
fri2600:00−16ese389592 0.1 1015263
03:00−17ese379693 0.2 1016245
06:00−18ese379690 0.1 1014216
09:00−16se479492 0.1 1014296
12:00−13se5893100 0.0 1012380
15:00−12se61192100 0.1 1009443
18:00−10se71594100 0.9 1003492
21:00−8se61394100 6.3 1000493
27 february, sat
sat2700:00−7se3796100 2.0 997218
03:00+1w61298100 3.3 993648
06:000w51097100 0.2 992625
09:000w4998100 1.1 993551
12:00−4nne4696100 1.1 994295
15:00−8n4893100 1.4 997517
18:00−11n4994100 0.6 999615
21:00−12n41093100 0.8 1002487
28 february, sun
sun2800:00−15nnw499598 0.0 1004317
03:00−18nnw399693 0.0 1006263
06:00−19nnw389766 0.0 1008248
09:00−18nnw489465 0.0 1009357
12:00−13nnw479094 0.0 1011528
15:00−12nnw488997 0.1 1012651
18:00−14nnw3995100 0.1 1014404
21:00−16nnw3796100 0.1 1017203
1 march, mon
mon100:00−20nnw349923 0.0 101880
03:00−21nnw249818 0.0 102177
06:00−22nnw239813 0.0 102247
09:00−19nnw259516 0.0 1024211
12:00−13nw238974 0.0 1024400
15:00−11w249088 0.0 1023403
18:00−14sw369688 0.0 102297
21:00−12wsw499494 0.0 1020264